• In Hungary
  • List of Countries
  • For 7 days
  • Water Temperature
  • Satellite Maps
  • Weather Map
  • News
  • Weather Widgets
  • user-avatar
    Login

    Hourly Weather Osovec

    Today, 15 October, Monday

    Time Temperature Precipitation Wind Pressure Humidity
    00:00 +11°C° 0 mm 4 mps 752 mmHg 91%
    01:00 +11°C° 0 mm 3 mps 752 mmHg 91%
    02:00 +11°C° 0 mm 3 mps 752 mmHg 91%
    03:00 +11°C° 0 mm 3 mps 753 mmHg 92%
    04:00 +10°C° 0 mm 3 mps 753 mmHg 91%
    05:00 +10°C° 0 mm 3 mps 753 mmHg 91%
    06:00 +10°C° 0 mm 3 mps 753 mmHg 91%
    07:00 +11°C° 0 mm 3 mps 753 mmHg 86%
    08:00 +11°C° 0 mm 3 mps 753 mmHg 82%
    09:00 +12°C° 0 mm 4 mps 753 mmHg 76%
    10:00 +13°C° 0 mm 4 mps 753 mmHg 71%
    11:00 +16°C° 0 mm 3 mps 753 mmHg 66%
    12:00 +17°C° 0 mm 3 mps 754 mmHg 61%
    13:00 +17°C° 0 mm 3 mps 754 mmHg 59%
    14:00 +18°C° 0 mm 3 mps 754 mmHg 58%
    15:00 +19°C° 0 mm 3 mps 753 mmHg 56%
    16:00 +18°C° 0 mm 3 mps 753 mmHg 62%
    17:00 +16°C° 0 mm 3 mps 753 mmHg 68%
    18:00 +14°C° 0 mm 3 mps 753 mmHg 74%
    19:00 +13°C° 0 mm 3 mps 753 mmHg 77%
    20:00 +12°C° 0 mm 3 mps 753 mmHg 79%
    21:00 +12°C° 0 mm 3 mps 753 mmHg 82%
    22:00 +12°C° 0 mm 2 mps 753 mmHg 83%
    23:00 +12°C° 0 mm 2 mps 753 mmHg 84%

    Tomorrow, 16 October, Tuesday

    Time Temperature Precipitation Wind Pressure Humidity
    00:00 +10°C° 0 mm 2 mps 753 mmHg 86%
    01:00 +10°C° 0 mm 2 mps 753 mmHg 86%
    02:00 +10°C° 0 mm 2 mps 753 mmHg 87%
    03:00 +10°C° 0 mm 2 mps 753 mmHg 88%
    04:00 +9°C° 0 mm 2 mps 753 mmHg 88%
    05:00 +9°C° 0 mm 2 mps 753 mmHg 89%
    06:00 +9°C° 0 mm 2 mps 753 mmHg 89%
    07:00 +9°C° 0 mm 2 mps 753 mmHg 86%
    08:00 +10°C° 0 mm 3 mps 753 mmHg 82%
    09:00 +11°C° 0 mm 3 mps 753 mmHg 79%
    10:00 +12°C° 0 mm 3 mps 753 mmHg 72%
    11:00 +13°C° 0 mm 3 mps 753 mmHg 66%
    12:00 +16°C° 0 mm 3 mps 753 mmHg 60%
    13:00 +16°C° 0 mm 3 mps 753 mmHg 58%
    14:00 +17°C° 0 mm 3 mps 753 mmHg 56%
    15:00 +17°C° 0 mm 3 mps 753 mmHg 54%
    16:00 +16°C° 0 mm 3 mps 753 mmHg 59%
    17:00 +13°C° 0 mm 3 mps 752 mmHg 64%
    18:00 +12°C° 0 mm 3 mps 752 mmHg 70%
    19:00 +12°C° 0 mm 3 mps 752 mmHg 70%
    20:00 +11°C° 0 mm 3 mps 752 mmHg 70%
    21:00 +11°C° 0 mm 3 mps 752 mmHg 71%
    22:00 +10°C° 0 mm 3 mps 752 mmHg 70%
    23:00 +10°C° 0 mm 3 mps 752 mmHg 70%

    Day after tomorrow, 17 October, Wednesday

    Time Temperature Precipitation Wind Pressure Humidity
    00:00 +10°C° 0 mm 3 mps 752 mmHg 70%
    01:00 +9°C° 0 mm 3 mps 752 mmHg 71%
    02:00 +9°C° 0 mm 3 mps 752 mmHg 71%
    03:00 +9°C° 0 mm 3 mps 752 mmHg 72%
    04:00 +9°C° 0 mm 3 mps 752 mmHg 74%
    05:00 +8°C° 0 mm 3 mps 752 mmHg 76%
    06:00 +8°C° 0 mm 3 mps 752 mmHg 77%
    07:00 +9°C° 0 mm 3 mps 752 mmHg 75%
    08:00 +9°C° 0 mm 3 mps 752 mmHg 73%
    09:00 +10°C° 0 mm 3 mps 752 mmHg 71%
    10:00 +12°C° 0 mm 3 mps 752 mmHg 67%
    11:00 +13°C° 0 mm 3 mps 752 mmHg 63%
    12:00 +14°C° 0 mm 3 mps 752 mmHg 59%
    13:00 +16°C° 0 mm 3 mps 752 mmHg 58%
    14:00 +16°C° 0 mm 3 mps 752 mmHg 57%
    15:00 +17°C° 0 mm 2 mps 752 mmHg 56%
    16:00 +15°C° 0 mm 2 mps 752 mmHg 62%
    17:00 +14°C° 0 mm 2 mps 752 mmHg 67%
    18:00 +13°C° 0 mm 1 mps 752 mmHg 72%
    19:00 +12°C° 0 mm 1 mps 752 mmHg 74%
    20:00 +12°C° 0 mm 1 mps 753 mmHg 77%
    21:00 +11°C° 0 mm 1 mps 753 mmHg 79%
    22:00 +11°C° 0 mm 1 mps 753 mmHg 80%
    23:00 +9°C° 0 mm 0 mps 753 mmHg 82%

    18 October, Thursday

    Time Temperature Precipitation Wind Pressure Humidity
    00:00 +9°C° 0 mm 0 mps 753 mmHg 83%
    01:00 +9°C° 0 mm 0 mps 753 mmHg 84%
    02:00 +9°C° 0 mm 0 mps 753 mmHg 84%
    03:00 +9°C° 0 mm 1 mps 753 mmHg 85%
    04:00 +9°C° 0 mm 1 mps 753 mmHg 85%
    05:00 +9°C° 0 mm 1 mps 753 mmHg 86%
    06:00 +9°C° 0 mm 1 mps 752 mmHg 87%
    07:00 +9°C° 0 mm 1 mps 752 mmHg 84%
    08:00 +10°C° 0 mm 1 mps 752 mmHg 81%
    09:00 +11°C° 0 mm 1 mps 752 mmHg 79%
    10:00 +12°C° 0 mm 2 mps 752 mmHg 73%
    11:00 +14°C° 0 mm 2 mps 752 mmHg 67%
    12:00 +15°C° 0 mm 2 mps 752 mmHg 61%
    13:00 +16°C° 0 mm 2 mps 752 mmHg 60%
    14:00 +17°C° 0 mm 2 mps 751 mmHg 59%
    15:00 +17°C° 0 mm 2 mps 751 mmHg 58%
    16:00 +16°C° 0 mm 2 mps 751 mmHg 64%
    17:00 +15°C° 0 mm 2 mps 751 mmHg 70%
    18:00 +14°C° 0 mm 2 mps 750 mmHg 75%
    19:00 +13°C° 0 mm 2 mps 750 mmHg 78%
    20:00 +13°C° 0 mm 2 mps 750 mmHg 80%
    21:00 +12°C° 0 mm 2 mps 750 mmHg 83%
    22:00 +12°C° 0 mm 2 mps 750 mmHg 84%
    23:00 +12°C° 0 mm 2 mps 750 mmHg 85%

    19 October, Friday

    Time Temperature Precipitation Wind Pressure Humidity
    00:00 +12°C° 0 mm 2 mps 750 mmHg 86%
    01:00 +12°C° 0 mm 2 mps 750 mmHg 87%
    02:00 +12°C° 0 mm 2 mps 750 mmHg 87%
    03:00 +10°C° 0 mm 3 mps 750 mmHg 88%
    04:00 +10°C° 0 mm 2 mps 749 mmHg 88%
    05:00 +10°C° 0 mm 2 mps 749 mmHg 88%
    06:00 +10°C° 0 mm 2 mps 749 mmHg 89%
    07:00 +10°C° 0 mm 3 mps 749 mmHg 86%
    08:00 +11°C° 0 mm 3 mps 749 mmHg 83%
    09:00 +12°C° 0 mm 3 mps 749 mmHg 80%
    10:00 +13°C° 0 mm 3 mps 749 mmHg 76%
    11:00 +14°C° 0 mm 3 mps 749 mmHg 72%
    12:00 +16°C° 0 mm 3 mps 748 mmHg 68%
    13:00 +16°C° 0 mm 3 mps 748 mmHg 66%
    14:00 +17°C° 0 mm 3 mps 748 mmHg 64%
    15:00 +17°C° 0 mm 3 mps 748 mmHg 62%
    16:00 +17°C° 0 mm 3 mps 747 mmHg 65%
    17:00 +16°C° 0 mm 3 mps 747 mmHg 69%
    18:00 +15°C° 0 mm 2 mps 747 mmHg 72%
    19:00 +14°C° 0 mm 2 mps 747 mmHg 73%
    20:00 +14°C° 0 mm 2 mps 747 mmHg 74%
    21:00 +14°C° 0 mm 2 mps 747 mmHg 75%
    22:00 +13°C° 0 mm 2 mps 747 mmHg 77%
    23:00 +13°C° 0 mm 2 mps 747 mmHg 80%

    20 October, Saturday

    Time Temperature Precipitation Wind Pressure Humidity
    00:00 +12°C° 0 mm 2 mps 747 mmHg 83%
    01:00 +12°C° 0 mm 2 mps 747 mmHg 86%
    02:00 +10°C° 0 mm 2 mps 747 mmHg 89%
    03:00 +10°C° 0 mm 2 mps 747 mmHg 92%
    04:00 +9°C° 0 mm 2 mps 747 mmHg 93%
    05:00 +9°C° 0 mm 2 mps 747 mmHg 94%
    06:00 +9°C° 0 mm 2 mps 747 mmHg 95%
    07:00 +9°C° 0 mm 2 mps 747 mmHg 92%
    08:00 +9°C° 0 mm 3 mps 747 mmHg 90%
    09:00 +9°C° 0 mm 3 mps 748 mmHg 87%
    10:00 +10°C° 0 mm 3 mps 748 mmHg 81%
    11:00 +10°C° 0 mm 3 mps 748 mmHg 76%
    12:00 +11°C° 0 mm 3 mps 748 mmHg 70%
    13:00 +13°C° 0 mm 2 mps 748 mmHg 67%
    14:00 +13°C° 0 mm 2 mps 748 mmHg 63%
    15:00 +13°C° 0 mm 2 mps 747 mmHg 59%
    16:00 +12°C° 0 mm 2 mps 747 mmHg 61%
    17:00 +10°C° 0 mm 2 mps 747 mmHg 63%
    18:00 +9°C° 0 mm 2 mps 747 mmHg 65%
    19:00 +9°C° 0 mm 2 mps 747 mmHg 65%
    20:00 +8°C° 0 mm 2 mps 747 mmHg 65%
    21:00 +8°C° 0 mm 2 mps 747 mmHg 65%
    22:00 +7°C° 0 mm 2 mps 747 mmHg 66%
    23:00 +7°C° 0 mm 2 mps 747 mmHg 67%
    Show more